www.pogodaiklimat.ru

Погода и климат >> Архив погоды >> Мексика >> Altar Son


ПОГОДА в Altar Son

  • Прогноз погоды в Altar Son
  • Монитор погоды в Altar Son
  • Климат города

АРХИВ ПОГОДЫ в Altar Son

Время (UTC), дата Ветер
(напр.,м/с)
 
Видим.   Явления Облачность Т
(С)
Тd
(С)
f
(%)
Тe
(С)
Тes
(С)
Комфортность P
(гПа)
Po
(гПа)
Тmin
(С)
Tmax
(С)
R
(мм)
R24
(мм)
S
(см)
12 8.08 СВ 1 20 км 10/0 2000 м
[Ac trans]
+21.8 +21.5 98 +28 +28 душно 1010.2 965.1 +21.6 +40.6
15 8.08 СВ 1 30 км 10/0 2000 м
[Ac trans]
+24.6 +22.1 86 +32 +34 очень
душно
1011.7 966.9
18 8.08 ЮВ 1 30 км ясно +31.4 +21.2 55 +39 +61 опасность
солнечного
удара
1010.7 966.2 +21.6 +31.5
21 8.08 З 1 30 км ясно +35.0 +20.4 43 +42 +63 опасность
перегрева
1008.5 965.4
00 9.08 С 1 30 км ясно +36.6 +19.6 37 +42 +47 опасность
перегрева
1006.0 963.2 +21.6 +37.0
03 9.08 З 1 20 км ясно +33.8 +19.7 44 +40 +40 очень
душно
1007.2 964.0
12 9.08 СВ 1 20 км ясно +24.8 +21.5 82 +32 +32 очень
душно
1011.8 967.1 +24.6 +37.0
15 9.08 СВ 1 30 км 10/0 2000 м
[Ac trans]
+28.2 +22.1 70 +37 +39 очень
душно
1012.0 967.5
18 9.08 С 1 30 км 10/0 2000 м
[Ac trans]
+29.2 +22.6 68 +39 +47 очень
душно
1012.9 967.9 +24.5 +30.4
21 9.08 СВ 1 30 км 10/0 2000 м
[Ac trans]
+32.0 +21.9 55 +41 +49 опасность
перегрева
1011.0 967.4
00 10.08 СВ 1 30 км 8/0 2000 м
[Ac trans]
+33.2 +21.3 50 +41 +44 опасность
перегрева
1010.0 966.6 +25.5 +33.6
03 10.08 ЮВ 1 20 км 8/0 2000 м
[Ac trans]
+31.2 +21.9 58 +40 +40 очень
душно
1010.5 966.8
12 10.08 СВ 1 20 км ясно +26.0 +9.3 35 +26 +26 жарко 1012.0 967.6 +25.5 +33.6
15 10.08 В 2 30 км 10/0 2000 м
[Ac trans]
+26.6 +25.8 95 +39 +41 очень
душно
1011.0 967.1
18 10.08 Ю 1 30 км 8/0 2000 м
[Ac trans]
+29.0 +26.3 85 +29 +40 жарко 1010.0 966.1 +25.5 +30.0
21 10.08 ЮЗ 2 30 км 4/0 2000 м
[Ac trans]
+31.0 +22.4 60 +40 +54 опасность
солнечного
удара
1008.0 965.5
00 11.08 З 2 30 км 5/0 2000 м
[Ac trans]
+34.0 +25.8 62 +49 +52 опасность
перегрева
1006.0 965.0 +25.5 +35.0
12 11.08 В 1 20 км ясно +25.0 +22.0 83 +32 +32 очень
душно
1007.0 962.3 +24.5 +35.0
15 11.08 ЮВ 1 30 км ясно +26.2 +8.4 32 +26 +32 жарко 1006.5 961.6
18 11.08 Ю 1 30 км ясно +29.0 +9.9 30 +29 +50 жарко 1005.0 960.5 +24.5 +30.0
21 11.08 ЮЗ 1 30 км ясно +33.0 +24.6 61 +46 +66 опасность
перегрева
1004.0 959.5
00 12.08 СЗ 2 30 км слабая морось 10/0 1500 м
[Ac trans]
+35.0 +20.4 43 +42 +43 опасность
перегрева
1003.0 958.2 25
12 12.08 СВ 1 20 км 8/0 2000 м
[Ac trans]
+23.0 +6.3 34 +24 +24 комфорт 1012.0 967.0 +22.5 +36.0
15 12.08 В 1 30 км 5/0 2000 м
[Ac trans]
+25.0 +9.7 38 +26 +29 жарко 1011.5 966.1
18 12.08 Ю 1 30 км ясно +28.0 +22.5 72 +37 +58 опасность
солнечного
удара
1011.0 965.1 +22.5 +29.0
21 12.08 ЮЗ 1 30 км ясно +32.0 +21.9 55 +41 +61 опасность
перегрева
1010.0 964.3
00 13.08 З 1 30 км ясно +36.0 +21.7 44 +44 +49 опасность
перегрева
1009.0 963.4 +22.5 +36.5
12 13.08 С 1 20 км ясно +24.8 +23.7 94 +34 +34 очень
душно
1004.6 965.9 +24.6 +36.5
15 13.08 СВ 1 30 км ясно +27.8 +22.5 73 +37 +42 очень
душно
1011.2 966.5
18 13.08 Ю 1 30 км ясно +31.8 +23.3 61 +43 +64 опасность
перегрева
1010.8 966.1 +24.2 +32.0
21 13.08 З 1 30 км 4/0 2000 м
[Ac trans]
+34.0 +20.9 46 +41 +57 опасность
перегрева
1008.6 965.4
00 14.08 Ю 2 30 км 5/0 2000 м
[Ac trans]
+36.0 +19.9 39 +42 +45 опасность
перегрева
1005.4 962.6 +24.2 +36.6
03 14.08 Ю 1 30 км ясно +31.0 +22.4 60 +40 +40 очень
душно
1006.2 962.6
12 14.08 В 1 20 км ясно +25.2 +21.3 79 +32 +32 очень
душно
1007.5 963.1 +25.0 +36.6
15 14.08 В 1 30 км ясно +27.8 +21.6 69 +36 +41 очень
душно
1008.7 964.2
18 14.08 ЮЗ 1 30 км ясно +33.0 +21.7 52 +41 +62 опасность
перегрева
1007.8 964.1 +24.6 +33.2
21 14.08 Ю 1 30 км ясно +36.2 +23.3 48 +47 +67 опасность
перегрева
1007.0 964.1
00 15.08 З 1 30 км 8/0 2000 м
[Ac trans]
+37.0 +23.5 46 +47 +50 опасность
перегрева
1003.8 961.2 +24.6 +37.8
03 15.08 С 1 20 км 5/0 2000 м
[Ac trans]
+23.6 +22.2 92 +31 +31 очень
душно
1006.2 961.6 19

 

Местоположение метеостанции Altar Son (Мексика): широта 30.71 долгота -111.84 высота над уровнем моря 397 м.

В архиве по умолчанию представлена погода в Altar Son за последнюю неделю. Архивные данные за месяц целиком и за предыдущие месяцы, начиная с января 2011 года, Вы можете получить, выбрав интересующий диапазон дат из раскрывающегося списка и нажав кнопку "Ввод!".


*Определитесь, кто Вы:
робот инопланетянин человек

Внимание! Время в таблицах - всемирное. Для получения местного времени необходимо прибавить поправку, которая в Altar Son равна -8 ч.

Смотрите также архив погоды в соседних городах и на ближайших метеорологических станциях:

Погода в Puerto Penasco (Мексика) (176 км)
Погода в Hermosillo (Мексика) (196 км)
Погода в Hermosillo la Magna (Мексика) (201 км)
Погода в Pilares de Nacoz (Мексика) (210 км)
Погода в San Felipe (Мексика) (285 км)
Погода в Guaymas (Мексика) (324 км)
Погода в Empalme (Мексика) (326 км)
Погода в Ejido Nuevo Leon (Мексика) (362 км)
Погода в Nueva Casas Grandes (Мексика) (379 км)
Погода в Santa Rosalia (Мексика) (384 км)

Пояснения к столбцам:

Ветер - указаны скорость ветра в м/с - средняя за 10 мин, порывы в срок и между сроками (в фигурных скобках) и направление, откуда дует ветер: С - северный, СВ - северо-восточный, В - восточный, ЮВ - юго-восточный, Ю - южный, ЮЗ - юго-западный, З - западный, СЗ - северо-западный.
Видимость - горизонтальная дальность видимости в метрах или километрах. При видимости от 1 до 10 км при отсутствии осадков обычно наблюдается дымка, при ухудшении видимости до 1 км и менее - туман. В сухую погоду видимость может ухудшаться дымом, пылью или мглою.
Явления - указаны атмосферные явления, наблюдавшиеся в срок или в последний час перед сроком; фигурными скобками обозначены явления, наблюдавшиеся между сроками (за 1-3 часа до срока); квадратными скобками обозначены град или гололедные отложения с указанием их диаметра в мм.
Облачность - указаны через наклонную черту общая и нижняя облачность в баллах и высота нижней границы облаков в метрах; квадратными скобками обозначены формы облаков: Ci - перистые, Cs - перисто-слоистые, Cc - перисто-кучевые, Ac - высококучевые, As - высокослоистые, Sc - слоисто-кучевые, Ns - слоисто-дождевые, Cu - кучевые, Cb - кучево-дождевые. Подробнее классификацию облаков см. в Атласе облаков (PDF).
T - Температура воздуха - температура, измеренная на высоте 2 м над землей.
Td - Температура точки росы - температура, при понижении до которой содержащийся в воздухе водяной пар достигнет насыщения.
f - Относительная влажность воздуха - влажноcть воздуха, измеренная на высоте 2 м над землей.
Te - Эффективная температура - температура, которую ощущает одетый по сезону человек в тени. Характеристика душности погоды. При расчете учитывается влияние влажности воздуха и скорости ветра на теплоощущения человека.
Tes - Эффективная температура на солнце - температура, которую ощущает человек, с поправкой на солнечный нагрев. Характеристика знойности погоды. Зависит от высоты солнца над горизонтом, облачности и скорости ветра. Ночью, в пасмурную погоду, а также при ветре 12 м/с и более поправка равна нулю.
P - Атмосферное давление - приведенное к уровню моря атмосферное давление.
Po - Атмосферное давление - измеренное на уровне метеостанции атмосферное давление.
Tmin - Минимальная температура - минимум температуры воздуха на высоте 2 м над землей.
Tmax - Максимальная температура - максимум температуры воздуха на высоте 2 м над землей.
R - Количество осадков - Количество выпавших осадков за период времени, мм. При наведении курсора мыши на число - период времени, за который выпало указанное количество осадков.
R24 - Количество осадков - Количество выпавших осадков за 24 часа, мм.
S - Снежный покров - Высота снежного покрова, см. При наведении курсора мыши на число - состояние снежного покрова и степень покрытия местности в баллах.